Terminal Aerodrome Forecast
Issued by NWS

Home | Current Version | Previous Version | Text Only | Print | Product List | Glossary On
Versions: 1 2 3 4 5 6 7 8 9 10 11 12 13 14
000
FTUS43 KDVN 261139
TAFBRL
TAF
KBRL 261139Z 2612/2712 VRB03KT P6SM SCT250
     FM261500 23007KT P6SM BKN250
     FM262200 27006KT P6SM BKN120
     FM270300 34010KT P6SM SCT250=

USA.gov is the U.S. government's official web portal to all federal, state and local government web resources and services.